[[{"header":{"parameterUnit":"m.s-1","parameterCategory":1,"la1":30.2991,"la2":30.254,"lo1":-89.0895,"lo2":-89.0444,"dy":0.0017,"dx":0.0017,"nx":28,"ny":28,"refTime":"2024-07-02T03:00:00:Z","depth":0,"parameterNumber":2,"parameterNumberName":"U-component_of_WINDS"},"data":[0,0,0,0,0,0,0,0,0,0,0,0,0,0,0,0,0,0,0,0,0,0,0,0,0,0,0,0,0,0,0,0,0,0,0,0,0,0,0,0,0,0,0,0,0,0,0,0,0,0,0,0,0,0,0,0,0,0,-0.5806,-0.5806,0,-0.5845,-0.5846,-0.5846,-0.5873,-0.5873,-0.5873,-0.5873,-0.5916,-0.5917,-0.5918,0,0,0,0,0,0,0,0,0,0,0,0,0,-0.5756,-0.5757,-0.5806,-0.5806,-0.5807,-0.5845,-0.5846,-0.5846,-0.5873,-0.5873,-0.5873,-0.5873,-0.5916,-0.5917,-0.5918,0,0,0,0,0,0,0,0,0,0,0,0,0,-0.5785,-0.5757,-0.5806,-0.5824,-0.5827,-0.5845,-0.5846,-0.5846,-0.5872,-0.5873,-0.5873,-0.5873,-0.5916,-0.5917,-0.5918,-0.5922,0,0,-0.5923,-0.5924,0,0,0,0,0,0,0,0,-0.5783,-0.5787,-0.5821,-0.5823,-0.5826,-0.5854,-0.5844,-0.5872,-0.5872,-0.5855,-0.5873,-0.5873,-0.5896,-0.5899,-0.5906,-0.5924,-0.5926,-0.5923,-0.5924,-0.5925,-0.5925,0,0,0,0,0,0,0,-0.5781,-0.5785,-0.5822,-0.5822,-0.5824,-0.5832,-0.5836,-0.585,-0.5874,-0.5857,-0.5859,-0.5863,-0.5897,-0.5904,-0.5907,-0.5927,-0.5923,-0.5924,-0.5925,-0.5926,-0.5952,-0.5952,0,0,0,0,0,0,-0.5776,-0.5783,-0.582,-0.5823,-0.5805,-0.5833,-0.5837,-0.5845,-0.5873,-0.5878,-0.5863,-0.5864,-0.5901,-0.5905,-0.5908,-0.5916,-0.5925,-0.5926,-0.5927,-0.5952,-0.5952,-0.5952,0,0,0,0,0,0,-0.5775,-0.5779,-0.5819,-0.5804,-0.5809,-0.5833,-0.5841,-0.5845,-0.5853,-0.5878,-0.5883,-0.5865,-0.5902,-0.5906,-0.5919,-0.5918,-0.5927,-0.5928,-0.5953,-0.5952,-0.5952,-0.593,0,0,0,0,0,0,-0.5773,-0.5778,-0.5779,-0.5803,-0.581,-0.5827,-0.5841,-0.5846,-0.5855,-0.5857,-0.5882,-0.5886,-0.5902,-0.5916,-0.592,-0.592,-0.5929,-0.5953,-0.5953,-0.5952,-0.5931,-0.5929,-0.5927,0,0,0,0,0,-0.5771,-0.5772,-0.5779,-0.5784,-0.5811,-0.5827,-0.5831,-0.5849,-0.5855,-0.5856,-0.5873,-0.5885,-0.5917,-0.5917,-0.5922,-0.5922,-0.5953,-0.5953,-0.5952,-0.5932,-0.5929,-0.5927,0,0,0,0,0,0,-0.5748,-0.5775,-0.5784,-0.5792,-0.5807,-0.5832,-0.5834,-0.5846,-0.586,-0.5861,-0.5884,-0.5889,-0.59,-0.5912,-0.5912,-0.5928,-0.5937,-0.5937,-0.5919,-0.5917,-0.5916,-0.5913,-0.593,0,0,0,0,0,-0.5743,-0.5753,-0.5777,-0.5782,-0.5789,-0.581,-0.5818,-0.583,-0.5847,-0.5854,-0.5871,-0.5887,-0.5901,-0.591,-0.5924,-0.5933,-0.5939,-0.5935,-0.5933,-0.5932,-0.5932,-0.5938,-0.5937,-0.5951,-0.5951,-0.5951,0,0,-0.5735,-0.5751,-0.5756,-0.5777,-0.5791,-0.5801,-0.5815,-0.5826,-0.5834,-0.5856,-0.5868,-0.5881,-0.5902,-0.5912,-0.5918,-0.5923,-0.593,-0.5931,-0.5929,-0.5931,-0.5938,-0.5937,-0.5935,-0.595,-0.595,-0.5951,0,0,-0.5724,-0.5737,-0.5743,-0.5756,-0.5775,-0.5789,-0.5791,-0.5814,-0.5823,-0.5836,-0.5853,-0.5864,-0.5887,-0.5901,-0.5911,-0.5906,-0.5919,-0.591,-0.5901,-0.5907,-0.5906,-0.5905,-0.5904,-0.5903,-0.591,-0.591,-0.591,0,-0.5711,-0.5727,-0.5745,-0.5754,-0.5764,-0.5783,-0.579,-0.5801,-0.5825,-0.5831,-0.5837,-0.5866,-0.5881,-0.5896,-0.5895,-0.5902,-0.5905,-0.5907,-0.5904,-0.5904,-0.5903,-0.5903,-0.5902,-0.5909,-0.5909,-0.5909,-0.5909,0,-0.571,-0.5721,-0.5723,-0.5744,-0.5754,-0.5762,-0.5783,-0.5791,-0.5802,-0.5816,-0.583,-0.5849,-0.5867,-0.5872,-0.5883,-0.5888,-0.5891,-0.59,-0.5909,-0.59,-0.59,-0.59,-0.5907,-0.5908,-0.5908,-0.5908,0,0,-0.5686,-0.5717,-0.5718,-0.5728,-0.5751,-0.576,-0.5769,-0.5787,-0.5794,-0.5809,-0.5818,-0.5838,-0.5846,-0.5858,-0.5871,-0.5877,-0.5873,-0.5885,-0.5886,-0.5883,-0.5881,-0.5874,-0.5874,-0.5881,-0.5881,-0.5881,-0.5879,0,-0.568,-0.5696,-0.5713,-0.5724,-0.5735,-0.5754,-0.5762,-0.5778,-0.5791,-0.5803,-0.5819,-0.5832,-0.5842,-0.5849,-0.5855,-0.5872,-0.5873,-0.5872,-0.5891,-0.5892,-0.5886,-0.5873,-0.5866,-0.5863,-0.5879,-0.5879,-0.5879,0,-0.5674,-0.5688,-0.57,-0.5723,-0.5728,-0.5735,-0.5753,-0.5763,-0.5782,-0.5791,-0.5804,-0.5819,-0.5831,-0.5838,-0.5856,-0.5855,-0.5864,-0.5874,-0.5874,-0.5877,-0.5885,-0.5877,-0.5863,-0.5863,-0.5879,-0.5879,-0.5879,0,-0.5656,-0.5678,-0.5688,-0.5697,-0.5723,-0.5728,-0.5739,-0.5758,-0.5767,-0.5783,-0.579,-0.5807,-0.5817,-0.583,-0.585,-0.5853,-0.5866,-0.5875,-0.5875,-0.5874,-0.5877,-0.5877,-0.5865,-0.5882,-0.5882,-0.5882,-0.5882,0,-0.5648,-0.5654,-0.5681,-0.5687,-0.5696,-0.5715,-0.5724,-0.5737,-0.5754,-0.5764,-0.5781,-0.5791,-0.5815,-0.5828,-0.5843,-0.5856,-0.586,-0.5869,-0.5873,-0.5868,-0.5867,-0.5874,-0.5875,-0.5882,-0.5882,-0.5882,-0.5882,0,-0.5629,-0.5647,-0.5659,-0.5683,-0.5689,-0.5695,-0.5716,-0.5723,-0.5738,-0.5751,-0.5755,-0.5778,-0.5794,-0.5814,-0.5837,-0.5847,-0.5859,-0.5865,-0.5852,-0.5855,-0.5854,-0.5854,-0.5847,-0.5848,-0.5863,-0.5863,-0.5863,0,-0.5623,-0.5628,-0.5653,-0.566,-0.5671,-0.5683,-0.5693,-0.5713,-0.5722,-0.5744,-0.5749,-0.5766,-0.5781,-0.5806,-0.5826,-0.5843,-0.585,-0.5847,-0.5853,-0.5848,-0.5851,-0.5851,-0.5852,-0.5845,-0.5845,-0.5845,-0.5844,0,-0.561,-0.5618,-0.5631,-0.5647,-0.5658,-0.5672,-0.5686,-0.5692,-0.5715,-0.5725,-0.5741,-0.5753,-0.5775,-0.5793,-0.5813,-0.5826,-0.584,-0.5842,-0.5843,-0.5838,-0.5831,-0.5835,-0.5848,-0.5842,-0.5843,-0.5843,-0.5843,-0.5843,-0.5598,-0.5604,-0.5622,-0.5636,-0.5649,-0.5662,-0.567,-0.5686,-0.5699,-0.5718,-0.573,-0.5746,-0.5765,-0.5794,-0.5806,-0.582,-0.5825,-0.5826,-0.5827,-0.5827,-0.5826,-0.5828,-0.5824,-0.5824,-0.5824,-0.5824,-0.5824,0,-0.5586,-0.5599,-0.5611,-0.5631,-0.5642,-0.5652,-0.5669,-0.5678,-0.5692,-0.5708,-0.5722,-0.5741,-0.5758,-0.5779,-0.5798,-0.5805,-0.5811,-0.5809,-0.5809,-0.5812,-0.582,-0.5817,-0.5803,-0.5803,-0.5803,-0.5803,-0.5803,-0.5803,-0.5581,-0.5592,-0.5603,-0.5621,-0.5634,-0.5649,-0.5658,-0.5671,-0.5684,-0.5704,-0.5718,-0.5731,-0.575,-0.577,-0.5786,-0.5792,-0.5799,-0.5794,-0.5802,-0.5809,-0.5811,-0.5813,-0.5811,-0.5796,-0.5795,-0.5793,-0.5793,-0.5793]},{"header":{"parameterUnit":"m.s-1","parameterCategory":1,"la1":30.2991,"la2":30.254,"lo1":-89.0895,"lo2":-89.0444,"dy":0.0017,"dx":0.0017,"nx":28,"ny":28,"refTime":"2024-07-02T03:00:00:Z","depth":0,"parameterNumber":3,"parameterNumberName":"V-component_of_WINDS"},"data":[0,0,0,0,0,0,0,0,0,0,0,0,0,0,0,0,0,0,0,0,0,0,0,0,0,0,0,0,0,0,0,0,0,0,0,0,0,0,0,0,0,0,0,0,0,0,0,0,0,0,0,0,0,0,0,0,0,0,2.6772,2.6773,0,2.6855,2.6856,2.6857,2.6844,2.6843,2.6842,2.684,2.6921,2.6924,2.6928,0,0,0,0,0,0,0,0,0,0,0,0,0,2.6599,2.6602,2.6772,2.6773,2.6774,2.6855,2.6856,2.6857,2.6845,2.6843,2.6841,2.684,2.692,2.6924,2.6928,0,0,0,0,0,0,0,0,0,0,0,0,0,2.6677,2.6603,2.6772,2.6778,2.6779,2.6854,2.6856,2.6857,2.6845,2.6843,2.6841,2.6839,2.6919,2.6924,2.6929,2.7002,0,0,2.6945,2.6947,0,0,0,0,0,0,0,0,2.6673,2.6683,2.6776,2.6777,2.6779,2.6837,2.6824,2.6906,2.6845,2.682,2.684,2.6838,2.6895,2.6902,2.6922,2.7006,2.701,2.6945,2.6948,2.695,2.6952,0,0,0,0,0,0,0,2.6667,2.668,2.6805,2.6777,2.6779,2.6775,2.6784,2.684,2.6868,2.6822,2.6821,2.6831,2.6895,2.6917,2.6923,2.7011,2.6945,2.6949,2.6953,2.6955,2.7159,2.7161,0,0,0,0,0,0,2.6661,2.6675,2.6802,2.6807,2.672,2.678,2.679,2.6821,2.6867,2.6872,2.6833,2.683,2.6909,2.6917,2.6926,2.7015,2.695,2.6955,2.6958,2.7157,2.7159,2.7162,0,0,0,0,0,0,2.6657,2.6672,2.6799,2.6741,2.6757,2.6785,2.682,2.6823,2.6845,2.6876,2.688,2.685,2.6908,2.6919,2.6984,2.7017,2.6957,2.6962,2.7154,2.7158,2.7161,2.7193,0,0,0,0,0,0,2.6652,2.6671,2.67,2.6742,2.676,2.6856,2.6822,2.6826,2.6854,2.6852,2.6893,2.6898,2.6907,2.6976,2.6989,2.7023,2.6966,2.7151,2.7156,2.716,2.7189,2.7197,2.7204,0,0,0,0,0,2.6646,2.6705,2.6702,2.6717,2.6797,2.6858,2.6868,2.6878,2.6857,2.6886,2.6906,2.6896,2.7012,2.6983,2.6997,2.7034,2.7149,2.7154,2.7159,2.7186,2.7196,2.7204,0,0,0,0,0,0,2.6665,2.6711,2.6707,2.6782,2.6816,2.6856,2.6892,2.6889,2.6929,2.6924,2.6934,2.6944,2.7009,2.7028,2.6995,2.7107,2.7077,2.7086,2.7092,2.7102,2.7109,2.7103,2.6971,0,0,0,0,0,2.6678,2.6725,2.6762,2.6824,2.6842,2.6864,2.6891,2.6896,2.6931,2.6945,2.697,2.7003,2.7047,2.7076,2.7118,2.7192,2.72,2.7224,2.7232,2.7238,2.7245,2.7285,2.7295,2.7179,2.7179,2.7179,0,0,2.6705,2.6736,2.6765,2.6829,2.6856,2.6903,2.6876,2.6927,2.6961,2.6953,2.7015,2.7035,2.7073,2.7142,2.7174,2.716,2.7279,2.7245,2.7249,2.7253,2.7291,2.7302,2.7312,2.7183,2.7182,2.7182,0,0,2.6778,2.6807,2.6862,2.689,2.6932,2.6947,2.696,2.7,2.7013,2.7076,2.7071,2.7111,2.7187,2.7214,2.7238,2.7322,2.7314,2.7335,2.7374,2.7413,2.7422,2.743,2.7459,2.747,2.7342,2.7342,2.7342,0,2.6806,2.6878,2.689,2.6942,2.6969,2.6965,2.702,2.7046,2.7099,2.7118,2.7102,2.7196,2.7222,2.7297,2.7318,2.7338,2.7352,2.733,2.742,2.7428,2.7436,2.7464,2.7475,2.7344,2.7344,2.7344,2.7343,0,2.691,2.6959,2.6998,2.7051,2.7083,2.7136,2.7155,2.7186,2.7188,2.7205,2.7269,2.7299,2.7347,2.7366,2.7368,2.7442,2.7432,2.7418,2.7388,2.7449,2.7475,2.7486,2.7347,2.7346,2.7346,2.7345,0,0,2.6996,2.7056,2.707,2.7093,2.714,2.7178,2.723,2.7278,2.7304,2.7341,2.7384,2.7449,2.7436,2.7463,2.7469,2.7503,2.7566,2.7485,2.7486,2.7498,2.7648,2.7658,2.767,2.7562,2.7564,2.7566,2.7645,0,2.7073,2.7167,2.7179,2.7262,2.7307,2.7304,2.735,2.7382,2.7399,2.7439,2.7456,2.7502,2.7482,2.7498,2.7532,2.7552,2.7597,2.7546,2.7601,2.7603,2.7591,2.7684,2.7694,2.7767,2.7655,2.7657,2.7658,0,2.7175,2.7216,2.7304,2.7344,2.7363,2.7404,2.7449,2.7488,2.7524,2.7534,2.7565,2.7566,2.7619,2.7588,2.766,2.7625,2.7649,2.7662,2.7665,2.7669,2.7634,2.769,2.7791,2.7801,2.7675,2.7674,2.7672,0,2.7228,2.7305,2.7368,2.7388,2.7437,2.7465,2.7486,2.7521,2.7549,2.7589,2.7607,2.7651,2.7675,2.7709,2.7722,2.7698,2.7793,2.7763,2.7801,2.7801,2.7821,2.7819,2.7925,2.7837,2.7837,2.7837,2.7837,0,2.7312,2.7366,2.7392,2.743,2.749,2.7503,2.7561,2.7581,2.7612,2.7653,2.7653,2.7691,2.7706,2.7747,2.7757,2.7815,2.7826,2.7834,2.7836,2.7834,2.7833,2.7848,2.7843,2.784,2.7839,2.7839,2.7838,0,2.7381,2.7401,2.7469,2.751,2.7521,2.7563,2.7597,2.7634,2.765,2.7702,2.7715,2.774,2.7788,2.7804,2.7862,2.7869,2.7936,2.7934,2.7924,2.7924,2.7961,2.7957,2.808,2.8097,2.7999,2.8,2.8,0,2.7433,2.7474,2.752,2.7548,2.7571,2.7616,2.7645,2.7659,2.769,2.7735,2.7765,2.7813,2.7852,2.7928,2.795,2.7994,2.7993,2.8033,2.7999,2.7996,2.7992,2.7989,2.7993,2.8039,2.804,2.8041,2.8042,0,2.7522,2.753,2.7573,2.762,2.7655,2.7691,2.7727,2.775,2.7769,2.7803,2.7853,2.7883,2.7942,2.7989,2.8034,2.8054,2.8051,2.8052,2.8063,2.8061,2.8053,2.8057,2.794,2.8049,2.8048,2.8048,2.8047,2.8047,2.7584,2.762,2.7658,2.7705,2.7734,2.7767,2.7804,2.7825,2.7867,2.7917,2.7923,2.7976,2.8011,2.8071,2.8094,2.8135,2.8124,2.814,2.8144,2.8147,2.815,2.8047,2.8143,2.8143,2.8143,2.8143,2.8143,0,2.7672,2.7697,2.774,2.7791,2.7828,2.7823,2.7862,2.7893,2.794,2.7974,2.8013,2.8069,2.8115,2.8142,2.8187,2.8215,2.8214,2.8226,2.8224,2.8228,2.8158,2.8143,2.8226,2.8226,2.8226,2.8226,2.8226,2.8226,2.7723,2.7784,2.7796,2.7871,2.7895,2.7948,2.7971,2.8001,2.8028,2.8092,2.813,2.8148,2.8179,2.8227,2.8268,2.8275,2.8291,2.8304,2.8309,2.8242,2.8233,2.8225,2.8212,2.8307,2.8308,2.8376,2.8377,2.8378]}]]